When you browse on this site, cookies collect data to enhance your experience and personalize the content and advertising you see.
Visit our Privacy Policy to learn more. By continuing to use the site, you agree to this use of cookies and data.
  • In France
  • List of Countries
  • For 7 days
  • Water Temperature
  • Satellite Maps
  • Weather Map
  • Weather Widgets
  • user-avatar
    Login

    Hourly Weather Sankt Polten

    Today, 18 December, Tuesday

    Time Temperature Precipitation Wind Pressure Humidity
    00:00 -1°C° 0 mm 2 mps 744 mmHg 92%
    01:00 +2°C° 0 mm 1 mps 744 mmHg 92%
    02:00 +2°C° 0 mm 1 mps 744 mmHg 93%
    03:00 +2°C° 0 mm 1 mps 744 mmHg 93%
    04:00 +2°C° 0 mm 2 mps 744 mmHg 94%
    05:00 +1°C° 0 mm 2 mps 744 mmHg 94%
    06:00 +1°C° 0 mm 2 mps 744 mmHg 94%
    07:00 +1°C° 0 mm 2 mps 744 mmHg 94%
    08:00 +3°C° 0 mm 1 mps 744 mmHg 93%
    09:00 +3°C° 0 mm 1 mps 744 mmHg 91%
    10:00 +4°C° 0 mm 1 mps 744 mmHg 89%
    11:00 +5°C° 0 mm 1 mps 744 mmHg 87%
    12:00 +5°C° 0 mm 1 mps 744 mmHg 85%
    13:00 +6°C° 0 mm 1 mps 744 mmHg 83%
    14:00 +5°C° 0 mm 1 mps 743 mmHg 86%
    15:00 +3°C° 0 mm 1 mps 743 mmHg 88%
    16:00 +1°C° 0 mm 0 mps 743 mmHg 91%
    17:00 +2°C° 0 mm 1 mps 743 mmHg 92%
    18:00 +1°C° 0 mm 1 mps 743 mmHg 92%
    19:00 +1°C° 0 mm 1 mps 743 mmHg 92%
    20:00 +1°C° 0 mm 1 mps 743 mmHg 93%
    21:00 0°C° 0 mm 1 mps 743 mmHg 93%
    22:00 0°C° 0 mm 1 mps 742 mmHg 93%
    23:00 0°C° 0 mm 1 mps 742 mmHg 93%

    Tomorrow, 19 December, Wednesday

    Time Temperature Precipitation Wind Pressure Humidity
    00:00 0°C° 0 mm 1 mps 742 mmHg 93%
    01:00 -2°C° 0 mm 2 mps 742 mmHg 93%
    02:00 -2°C° 0 mm 2 mps 741 mmHg 93%
    03:00 -2°C° 0 mm 2 mps 741 mmHg 93%
    04:00 -2°C° 0 mm 2 mps 741 mmHg 93%
    05:00 -2°C° 0 mm 2 mps 741 mmHg 92%
    06:00 -2°C° 0 mm 2 mps 741 mmHg 92%
    07:00 -2°C° 0 mm 2 mps 741 mmHg 92%
    08:00 -2°C° 0 mm 2 mps 741 mmHg 90%
    09:00 -1°C° 0 mm 2 mps 741 mmHg 87%
    10:00 +1°C° 0 mm 2 mps 741 mmHg 85%
    11:00 +2°C° 0 mm 2 mps 740 mmHg 83%
    12:00 +3°C° 0 mm 2 mps 740 mmHg 82%
    13:00 +4°C° 0 mm 2 mps 740 mmHg 80%
    14:00 +3°C° 0 mm 2 mps 739 mmHg 84%
    15:00 +3°C° 0 mm 1 mps 739 mmHg 88%
    16:00 +2°C° 0 mm 1 mps 739 mmHg 91%
    17:00 +1°C° 0 mm 2 mps 739 mmHg 91%
    18:00 -1°C° 0 mm 2 mps 738 mmHg 91%
    19:00 -1°C° 0 mm 2 mps 738 mmHg 91%
    20:00 -1°C° 0 mm 2 mps 738 mmHg 91%
    21:00 -1°C° 0 mm 2 mps 738 mmHg 92%
    22:00 -2°C° 0 mm 2 mps 738 mmHg 92%
    23:00 -2°C° 0 mm 2 mps 738 mmHg 92%

    Day after tomorrow, 20 December, Thursday

    Time Temperature Precipitation Wind Pressure Humidity
    00:00 -2°C° 0 mm 2 mps 738 mmHg 92%
    01:00 -1°C° 0 mm 1 mps 738 mmHg 92%
    02:00 -1°C° 0 mm 1 mps 738 mmHg 92%
    03:00 -1°C° 0 mm 1 mps 738 mmHg 91%
    04:00 -1°C° 0 mm 1 mps 738 mmHg 91%
    05:00 0°C° 0 mm 1 mps 738 mmHg 90%
    06:00 0°C° 0 mm 1 mps 738 mmHg 89%
    07:00 0°C° 0 mm 1 mps 739 mmHg 88%
    08:00 +1°C° 0.1 mm 1 mps 739 mmHg 87%
    09:00 +2°C° 0.1 mm 1 mps 739 mmHg 85%
    10:00 +2°C° 0.1 mm 1 mps 739 mmHg 84%
    11:00 +3°C° 0.3 mm 1 mps 739 mmHg 85%
    12:00 +3°C° 0.3 mm 1 mps 739 mmHg 85%
    13:00 +4°C° 0.3 mm 1 mps 739 mmHg 86%
    14:00 +4°C° 0.3 mm 1 mps 739 mmHg 88%
    15:00 +3°C° 0.3 mm 1 mps 739 mmHg 90%
    16:00 +3°C° 0.3 mm 1 mps 739 mmHg 92%
    17:00 +3°C° 0.2 mm 1 mps 739 mmHg 92%
    18:00 +3°C° 0.2 mm 1 mps 740 mmHg 92%
    19:00 +3°C° 0.2 mm 2 mps 740 mmHg 92%
    20:00 +3°C° 0 mm 2 mps 740 mmHg 92%
    21:00 +3°C° 0 mm 2 mps 740 mmHg 92%
    22:00 +3°C° 0 mm 2 mps 740 mmHg 92%
    23:00 +3°C° 0 mm 2 mps 740 mmHg 92%

    21 December, Friday

    Time Temperature Precipitation Wind Pressure Humidity
    00:00 +3°C° 0 mm 2 mps 741 mmHg 92%
    01:00 +3°C° 0 mm 2 mps 741 mmHg 92%
    02:00 +3°C° 0 mm 2 mps 741 mmHg 92%
    03:00 +2°C° 0 mm 2 mps 741 mmHg 92%
    04:00 +2°C° 0 mm 2 mps 741 mmHg 92%
    05:00 +2°C° 0 mm 2 mps 741 mmHg 91%
    06:00 +2°C° 0 mm 2 mps 740 mmHg 91%
    07:00 +2°C° 0 mm 2 mps 740 mmHg 90%
    08:00 +2°C° 0 mm 2 mps 740 mmHg 88%
    09:00 +4°C° 0 mm 1 mps 740 mmHg 86%
    10:00 +5°C° 0 mm 1 mps 740 mmHg 83%
    11:00 +6°C° 0.1 mm 1 mps 739 mmHg 83%
    12:00 +6°C° 0.1 mm 1 mps 738 mmHg 83%
    13:00 +6°C° 0.1 mm 1 mps 737 mmHg 83%
    14:00 +6°C° 0.1 mm 1 mps 737 mmHg 84%
    15:00 +5°C° 0.1 mm 1 mps 736 mmHg 85%
    16:00 +5°C° 0.1 mm 1 mps 735 mmHg 86%
    17:00 +4°C° 0.4 mm 2 mps 735 mmHg 86%
    18:00 +4°C° 0.4 mm 2 mps 735 mmHg 87%
    19:00 +4°C° 0.4 mm 2 mps 735 mmHg 87%
    20:00 +3°C° 0.1 mm 3 mps 735 mmHg 87%
    21:00 +4°C° 0.1 mm 3 mps 735 mmHg 87%
    22:00 +4°C° 0.1 mm 4 mps 735 mmHg 86%
    23:00 +4°C° 0 mm 4 mps 736 mmHg 86%

    22 December, Saturday

    Time Temperature Precipitation Wind Pressure Humidity
    00:00 +5°C° 0 mm 4 mps 736 mmHg 86%
    01:00 +5°C° 0 mm 4 mps 736 mmHg 87%
    02:00 +5°C° 0 mm 4 mps 736 mmHg 87%
    03:00 +6°C° 0 mm 4 mps 736 mmHg 88%
    04:00 +6°C° 0 mm 5 mps 737 mmHg 89%
    05:00 +6°C° 0 mm 4 mps 737 mmHg 90%
    06:00 +5°C° 0 mm 3 mps 737 mmHg 92%
    07:00 +6°C° 0 mm 2 mps 737 mmHg 93%
    08:00 +6°C° 0 mm 2 mps 737 mmHg 92%
    09:00 +7°C° 0 mm 2 mps 737 mmHg 92%
    10:00 +7°C° 0 mm 2 mps 737 mmHg 91%
    11:00 +7°C° 0.1 mm 2 mps 737 mmHg 91%
    12:00 +8°C° 0.1 mm 2 mps 736 mmHg 90%
    13:00 +8°C° 0.1 mm 2 mps 736 mmHg 90%
    14:00 +8°C° 0.1 mm 3 mps 736 mmHg 89%
    15:00 +8°C° 0.1 mm 3 mps 736 mmHg 89%
    16:00 +8°C° 0.1 mm 3 mps 736 mmHg 89%
    17:00 +8°C° 0.1 mm 3 mps 736 mmHg 89%
    18:00 +7°C° 0.1 mm 4 mps 736 mmHg 88%
    19:00 +7°C° 0.1 mm 4 mps 736 mmHg 88%
    20:00 +7°C° 0.8 mm 4 mps 736 mmHg 89%
    21:00 +8°C° 0.8 mm 3 mps 736 mmHg 90%
    22:00 +7°C° 0.8 mm 3 mps 737 mmHg 91%
    23:00 +7°C° 0.9 mm 3 mps 737 mmHg 92%

    23 December, Sunday

    Time Temperature Precipitation Wind Pressure Humidity
    00:00 +7°C° 0.9 mm 3 mps 737 mmHg 93%
    01:00 +7°C° 0.9 mm 3 mps 738 mmHg 93%
    02:00 +7°C° 0.7 mm 3 mps 738 mmHg 93%
    03:00 +7°C° 0.7 mm 3 mps 738 mmHg 93%
    04:00 +7°C° 0.7 mm 3 mps 739 mmHg 93%
    05:00 +5°C° 0.3 mm 3 mps 739 mmHg 92%
    06:00 +5°C° 0.3 mm 4 mps 740 mmHg 91%
    07:00 +5°C° 0.3 mm 4 mps 740 mmHg 90%
    08:00 +5°C° 0 mm 4 mps 741 mmHg 89%
    09:00 +5°C° 0 mm 4 mps 741 mmHg 88%
    10:00 +6°C° 0 mm 4 mps 741 mmHg 86%
    11:00 +6°C° 0 mm 4 mps 741 mmHg 84%
    12:00 +6°C° 0 mm 4 mps 741 mmHg 83%
    13:00 +7°C° 0 mm 4 mps 741 mmHg 81%
    14:00 +6°C° 0 mm 4 mps 741 mmHg 82%
    15:00 +6°C° 0 mm 4 mps 742 mmHg 84%
    16:00 +5°C° 0 mm 4 mps 742 mmHg 85%
    17:00 +5°C° 0 mm 3 mps 742 mmHg 86%
    18:00 +5°C° 0 mm 3 mps 742 mmHg 86%
    19:00 +5°C° 0 mm 3 mps 743 mmHg 86%
    20:00 +4°C° 0 mm 3 mps 743 mmHg 87%
    21:00 +5°C° 0 mm 2 mps 743 mmHg 88%
    22:00 +4°C° 0 mm 2 mps 743 mmHg 89%
    23:00 +5°C° 0 mm 2 mps 743 mmHg 89%
    Show more